[[{"header":{"parameterUnit":"m.s-1","parameterCategory":1,"la1":30.2991,"la2":30.254,"lo1":-89.0895,"lo2":-89.0444,"dy":0.0017,"dx":0.0017,"nx":28,"ny":28,"refTime":"2023-07-28T03:00:00:Z","depth":0,"parameterNumber":2,"parameterNumberName":"U-component_of_WINDS"},"data":[0,0,0,0,0,0,0,0,0,0,0,0,0,0,0,0,0,0,0,0,0,0,0,0,0,0,0,0,0,0,0,0,0,0,0,0,0,0,0,0,0,0,0,0,0,0,0,0,0,0,0,0,0,0,0,0,0,0,-0.0898,-0.0896,0,-0.071,-0.0708,-0.0705,-0.0644,-0.0645,-0.0646,-0.0647,-0.0449,-0.0444,-0.0438,0,0,0,0,0,0,0,0,0,0,0,0,0,-0.1202,-0.1196,-0.0898,-0.0896,-0.0893,-0.071,-0.0708,-0.0705,-0.0644,-0.0645,-0.0646,-0.0647,-0.0451,-0.0444,-0.0437,0,0,0,0,0,0,0,0,0,0,0,0,0,-0.1047,-0.1195,-0.0898,-0.0841,-0.0834,-0.0711,-0.0707,-0.0704,-0.0644,-0.0645,-0.0647,-0.0648,-0.0454,-0.0445,-0.0436,-0.0355,0,0,-0.0408,-0.0404,0,0,0,0,0,0,0,0,-0.1056,-0.1036,-0.0852,-0.0845,-0.0837,-0.0702,-0.0742,-0.0587,-0.0644,-0.0716,-0.0647,-0.0648,-0.0532,-0.0517,-0.0478,-0.0345,-0.0337,-0.0408,-0.0402,-0.0398,-0.0396,0,0,0,0,0,0,0,-0.1067,-0.1044,-0.0823,-0.0849,-0.084,-0.0824,-0.0803,-0.0712,-0.0619,-0.071,-0.0705,-0.0684,-0.0528,-0.0487,-0.0473,-0.0334,-0.0408,-0.04,-0.0394,-0.0391,-0.0126,-0.0125,0,0,0,0,0,0,-0.1088,-0.1053,-0.0829,-0.0818,-0.0952,-0.0817,-0.0794,-0.0744,-0.062,-0.0602,-0.0683,-0.0682,-0.0502,-0.0484,-0.0466,-0.0364,-0.0398,-0.039,-0.0385,-0.0128,-0.0126,-0.0124,0,0,0,0,0,0,-0.1094,-0.1068,-0.0837,-0.0934,-0.0903,-0.0811,-0.0755,-0.0739,-0.0699,-0.06,-0.0582,-0.0659,-0.0503,-0.0479,-0.0384,-0.0356,-0.0386,-0.0377,-0.013,-0.0127,-0.0125,-0.0158,0,0,0,0,0,0,-0.1103,-0.1071,-0.104,-0.0934,-0.0898,-0.0758,-0.0753,-0.0735,-0.0684,-0.068,-0.0572,-0.0555,-0.0502,-0.0397,-0.0375,-0.0344,-0.037,-0.0132,-0.0129,-0.0126,-0.0159,-0.0157,-0.0155,0,0,0,0,0,-0.1114,-0.1055,-0.1038,-0.1012,-0.0858,-0.0757,-0.0736,-0.0677,-0.0682,-0.0649,-0.0586,-0.0559,-0.0363,-0.0388,-0.0362,-0.0328,-0.0133,-0.0129,-0.0126,-0.0159,-0.0157,-0.0155,0,0,0,0,0,0,-0.1158,-0.104,-0.102,-0.0925,-0.0852,-0.0747,-0.0704,-0.0676,-0.0599,-0.0599,-0.0527,-0.0503,-0.0414,-0.0361,-0.0391,-0.0244,-0.0247,-0.0238,-0.0281,-0.0278,-0.0276,-0.0291,-0.0363,0,0,0,0,0,-0.1157,-0.1086,-0.0986,-0.0912,-0.0876,-0.0797,-0.0751,-0.0712,-0.0632,-0.06,-0.053,-0.0453,-0.0374,-0.0323,-0.0245,-0.0151,-0.0127,-0.0115,-0.0113,-0.0112,-0.0105,-0.0053,-0.0047,-0.0112,-0.0112,-0.0113,0,0,-0.1153,-0.108,-0.1039,-0.0919,-0.0857,-0.0785,-0.0771,-0.0694,-0.064,-0.0588,-0.0494,-0.044,-0.0349,-0.0255,-0.021,-0.0209,-0.0082,-0.0108,-0.0108,-0.0101,-0.0049,-0.0043,-0.0037,-0.011,-0.011,-0.0111,0,0,-0.1109,-0.1047,-0.0979,-0.0918,-0.0826,-0.0774,-0.0758,-0.0657,-0.062,-0.0526,-0.0486,-0.0419,-0.0285,-0.0222,-0.0172,-0.0108,-0.008,-0.0084,-0.0075,-0.0025,-0.002,-0.0015,0.0008,0.0015,-0.0078,-0.0078,-0.0078,0,-0.1116,-0.1006,-0.0947,-0.0873,-0.0822,-0.0774,-0.0704,-0.0648,-0.0534,-0.05,-0.05,-0.0332,-0.0267,-0.0158,-0.0143,-0.0104,-0.0083,-0.0096,-0.0026,-0.002,-0.0014,0.0008,0.0016,-0.0079,-0.0079,-0.0079,-0.0078,0,-0.1019,-0.0944,-0.09,-0.0794,-0.0738,-0.0666,-0.0596,-0.0545,-0.0512,-0.046,-0.0365,-0.0286,-0.0191,-0.0163,-0.0128,-0.0049,-0.0051,-0.004,-0.0041,-0.001,0.0012,0.0021,-0.008,-0.008,-0.008,-0.0079,0,0,-0.0996,-0.086,-0.0845,-0.0797,-0.0693,-0.0634,-0.056,-0.047,-0.0429,-0.0353,-0.029,-0.0178,-0.0168,-0.0112,-0.007,-0.0026,0.0019,-0.0019,-0.0016,-0.0016,0.011,0.01,0.0109,0.0037,0.0039,0.0041,0.0102,0,-0.0939,-0.0808,-0.0753,-0.0647,-0.0577,-0.0532,-0.0468,-0.0397,-0.0347,-0.028,-0.0223,-0.0146,-0.0138,-0.0104,-0.0058,0.0004,0.0045,-0.0,0.0097,0.01,0.0073,0.0121,0.0112,0.0166,0.0111,0.0113,0.0114,0,-0.0855,-0.0781,-0.0669,-0.0575,-0.0544,-0.0488,-0.0402,-0.0338,-0.0257,-0.0223,-0.0163,-0.0124,-0.0045,-0.0053,0.0057,0.0025,0.0068,0.0104,0.0107,0.0119,0.0109,0.0134,0.0185,0.0193,0.0128,0.0127,0.0126,0,-0.0851,-0.0722,-0.0639,-0.0599,-0.0488,-0.045,-0.0401,-0.0322,-0.0272,-0.0196,-0.0163,-0.0079,-0.0032,0.0032,0.0093,0.0082,0.0196,0.0194,0.0227,0.0225,0.025,0.0247,0.0308,0.0277,0.0277,0.0277,0.0276,0,-0.0793,-0.0726,-0.0636,-0.0584,-0.0508,-0.0446,-0.0372,-0.032,-0.025,-0.0188,-0.0143,-0.0085,-0.0008,0.0059,0.0107,0.019,0.0211,0.0241,0.0253,0.0237,0.0233,0.0266,0.0264,0.0279,0.0278,0.0278,0.0278,0,-0.0774,-0.0711,-0.0618,-0.0521,-0.0495,-0.0443,-0.036,-0.0308,-0.0257,-0.0178,-0.0156,-0.0075,0.0007,0.0074,0.0182,0.0214,0.03,0.0314,0.0272,0.0278,0.0307,0.0303,0.0392,0.0406,0.0365,0.0365,0.0365,0,-0.0742,-0.069,-0.0588,-0.0544,-0.0497,-0.0426,-0.0375,-0.0312,-0.0261,-0.0166,-0.0126,-0.0042,0.0029,0.0158,0.0228,0.031,0.0326,0.0351,0.0339,0.032,0.0326,0.0322,0.0327,0.0352,0.0353,0.0353,0.0353,0,-0.0691,-0.0663,-0.0592,-0.0512,-0.0453,-0.0386,-0.0317,-0.0284,-0.0208,-0.0153,-0.007,-0.0015,0.0093,0.0177,0.0266,0.0317,0.0348,0.0356,0.0368,0.0352,0.0325,0.0339,0.0275,0.0354,0.0354,0.0354,0.0354,0.0354,-0.0664,-0.0616,-0.0538,-0.0462,-0.0404,-0.0342,-0.0289,-0.0232,-0.0162,-0.007,-0.0037,0.0048,0.0127,0.0249,0.03,0.0368,0.0371,0.0388,0.0393,0.0396,0.0394,0.0314,0.0385,0.0385,0.0385,0.0385,0.0385,0,-0.0612,-0.056,-0.049,-0.0397,-0.0337,-0.0316,-0.0239,-0.019,-0.0117,-0.0047,0.0021,0.0116,0.0197,0.0271,0.0355,0.0395,0.0411,0.0415,0.0413,0.0424,0.0386,0.0367,0.0401,0.0401,0.0401,0.0401,0.0401,0.0401,-0.0577,-0.0496,-0.0459,-0.0348,-0.0296,-0.0214,-0.0173,-0.0115,-0.0059,0.0044,0.011,0.0158,0.023,0.0319,0.0394,0.0414,0.0442,0.0442,0.0466,0.0429,0.0427,0.0425,0.0407,0.0448,0.0448,0.0498,0.0499,0.0499]},{"header":{"parameterUnit":"m.s-1","parameterCategory":1,"la1":30.2991,"la2":30.254,"lo1":-89.0895,"lo2":-89.0444,"dy":0.0017,"dx":0.0017,"nx":28,"ny":28,"refTime":"2023-07-28T03:00:00:Z","depth":0,"parameterNumber":3,"parameterNumberName":"V-component_of_WINDS"},"data":[0,0,0,0,0,0,0,0,0,0,0,0,0,0,0,0,0,0,0,0,0,0,0,0,0,0,0,0,0,0,0,0,0,0,0,0,0,0,0,0,0,0,0,0,0,0,0,0,0,0,0,0,0,0,0,0,0,0,2.5599,2.5599,0,2.5522,2.5521,2.552,2.5521,2.5522,2.5523,2.5524,2.5437,2.5433,2.543,0,0,0,0,0,0,0,0,0,0,0,0,0,2.574,2.5737,2.56,2.5599,2.5598,2.5522,2.5521,2.552,2.5521,2.5522,2.5524,2.5525,2.5438,2.5434,2.543,0,0,0,0,0,0,0,0,0,0,0,0,0,2.5672,2.5736,2.56,2.5589,2.5588,2.5522,2.5521,2.552,2.5521,2.5522,2.5524,2.5526,2.5439,2.5434,2.5429,2.5367,0,0,2.5414,2.5412,0,0,0,0,0,0,0,0,2.5676,2.5667,2.5592,2.559,2.5588,2.5533,2.5538,2.5468,2.552,2.5546,2.5524,2.5526,2.5467,2.546,2.5442,2.5363,2.5359,2.5414,2.5411,2.5409,2.5407,0,0,0,0,0,0,0,2.568,2.567,2.5569,2.5591,2.5588,2.5586,2.5578,2.5525,2.5498,2.5544,2.5544,2.5535,2.5466,2.5446,2.5439,2.5358,2.5414,2.5409,2.5406,2.5404,2.5222,2.522,0,0,0,0,0,0,2.5688,2.5674,2.5571,2.5566,2.5637,2.5582,2.5573,2.5549,2.5499,2.5493,2.5534,2.5535,2.5454,2.5445,2.5436,2.5358,2.5409,2.5404,2.5401,2.5223,2.5221,2.5219,0,0,0,0,0,0,2.5691,2.5679,2.5574,2.562,2.5607,2.5578,2.5551,2.5547,2.5527,2.5491,2.5486,2.5519,2.5455,2.5443,2.5384,2.5355,2.5402,2.5397,2.5226,2.5223,2.522,2.5203,0,0,0,0,0,0,2.5696,2.568,2.5659,2.562,2.5604,2.5526,2.5549,2.5544,2.5519,2.5521,2.5476,2.547,2.5455,2.5392,2.5379,2.5349,2.5393,2.5228,2.5224,2.5221,2.5206,2.52,2.5195,0,0,0,0,0,2.5701,2.5655,2.5657,2.5645,2.5577,2.5524,2.5515,2.5502,2.5517,2.5493,2.547,2.5471,2.5361,2.5386,2.5372,2.534,2.523,2.5225,2.5221,2.5209,2.5201,2.5195,0,0,0,0,0,0,2.5689,2.565,2.5652,2.5594,2.5563,2.5525,2.5494,2.5495,2.5456,2.5459,2.5441,2.5431,2.5371,2.535,2.5378,2.5276,2.5297,2.529,2.5292,2.5285,2.5279,2.5285,2.5389,0,0,0,0,0,2.568,2.5644,2.5611,2.5562,2.5547,2.5523,2.55,2.5493,2.5458,2.5445,2.5417,2.5382,2.5339,2.5311,2.527,2.5204,2.5192,2.5175,2.5169,2.5165,2.5158,2.5119,2.511,2.5205,2.5205,2.5205,0,0,2.566,2.5634,2.5612,2.5559,2.5534,2.5494,2.5512,2.5469,2.5438,2.5437,2.538,2.5359,2.5318,2.5255,2.5225,2.5234,2.5129,2.5159,2.5156,2.5151,2.5114,2.5105,2.5097,2.5202,2.5203,2.5203,0,0,2.5603,2.5581,2.5538,2.5513,2.5476,2.5461,2.545,2.5413,2.5399,2.5342,2.534,2.5302,2.5229,2.5199,2.5175,2.5106,2.5105,2.5093,2.5063,2.5026,2.5018,2.5011,2.4985,2.4976,2.5087,2.5087,2.5087,0,2.5582,2.5525,2.5515,2.5472,2.5447,2.5447,2.5401,2.5377,2.5327,2.5308,2.5321,2.5229,2.5201,2.513,2.5114,2.5094,2.5079,2.5097,2.5021,2.5014,2.5007,2.4981,2.4972,2.5086,2.5086,2.5086,2.5086,0,2.55,2.5459,2.5428,2.5383,2.5355,2.5311,2.5291,2.5263,2.5258,2.5241,2.5181,2.5149,2.51,2.5083,2.5076,2.501,2.5017,2.5025,2.5045,2.4997,2.4972,2.4963,2.5084,2.5084,2.5085,2.5085,0,0,2.5432,2.5383,2.5371,2.535,2.5309,2.5276,2.5231,2.5186,2.5161,2.5127,2.5086,2.5025,2.5032,2.5004,2.4994,2.4961,2.4907,2.4973,2.4972,2.496,2.4829,2.4821,2.481,2.4906,2.4905,2.4903,2.4831,0,2.5369,2.5292,2.5281,2.5211,2.5172,2.5171,2.5131,2.51,2.5082,2.5045,2.5024,2.498,2.4994,2.4977,2.4945,2.492,2.4879,2.4925,2.4865,2.4863,2.4874,2.4798,2.479,2.4724,2.4822,2.482,2.4819,0,2.5286,2.5252,2.5178,2.5142,2.5125,2.509,2.5047,2.5012,2.4976,2.4965,2.4934,2.4928,2.4877,2.4902,2.483,2.4862,2.4836,2.482,2.4817,2.4809,2.4837,2.4786,2.4703,2.4692,2.4804,2.4805,2.4807,0,2.5241,2.5177,2.5124,2.5106,2.5063,2.5038,2.5018,2.4984,2.4957,2.4919,2.4901,2.4856,2.4831,2.4795,2.4776,2.4796,2.4705,2.4728,2.4692,2.4692,2.4671,2.4672,2.4581,2.4658,2.4658,2.4658,2.4659,0,2.5171,2.5126,2.5104,2.5071,2.5019,2.5007,2.4954,2.4935,2.4904,2.4866,2.4862,2.4825,2.4803,2.4762,2.4747,2.4688,2.4677,2.4665,2.4661,2.4664,2.4665,2.4646,2.4649,2.4656,2.4656,2.4657,2.4657,0,2.5112,2.5096,2.5038,2.5003,2.4993,2.4956,2.4924,2.489,2.4874,2.4824,2.4812,2.4784,2.4735,2.4714,2.4653,2.4642,2.4575,2.4575,2.4588,2.4586,2.455,2.4553,2.4442,2.4425,2.4515,2.4514,2.4514,0,2.5068,2.5033,2.4994,2.497,2.495,2.491,2.4883,2.4869,2.484,2.4796,2.4767,2.472,2.468,2.4602,2.4574,2.4527,2.4525,2.4489,2.4518,2.4522,2.4522,2.4523,2.4519,2.4483,2.4482,2.4482,2.4481,0,2.499,2.4983,2.4947,2.4907,2.4876,2.4843,2.481,2.4789,2.4769,2.4737,2.4689,2.4659,2.4598,2.4549,2.4501,2.4477,2.4474,2.4473,2.4461,2.4463,2.4471,2.4464,2.4572,2.4475,2.4475,2.4476,2.4476,2.4476,2.4935,2.4904,2.4872,2.483,2.4805,2.4774,2.4741,2.4721,2.4682,2.4633,2.4626,2.4574,2.4536,2.4471,2.4446,2.4402,2.4411,2.4395,2.439,2.4386,2.4383,2.448,2.4393,2.4394,2.4394,2.4394,2.4394,0,2.4855,2.4835,2.4797,2.4753,2.4719,2.4724,2.4688,2.4659,2.4614,2.4581,2.4543,2.4486,2.4439,2.4408,2.4359,2.433,2.4328,2.4318,2.4319,2.4313,2.4379,2.4393,2.4321,2.4321,2.4321,2.4321,2.4321,2.4321,2.4809,2.4756,2.4746,2.4679,2.4658,2.4609,2.4588,2.4559,2.4532,2.447,2.4432,2.4413,2.438,2.4329,2.4284,2.4276,2.4257,2.4247,2.4238,2.4301,2.4308,2.4315,2.4328,2.4243,2.4243,2.4175,2.4174,2.4174]}]]